Tracking 30918 objects as of 2-Jul-2025
HD Live streaming from Space Station
objects crossing your sky now

STARLINK-30355

Track STARLINK-30355 now!
10-day predictions
STARLINK-30355 is classified as:


NORAD ID: 57777
Int'l Code: 2023-134G
Perigee: 565.6 km
Apogee: 566.8 km
Inclination: 43.0 °
Period: 95.8 minutes
Semi major axis: 6937 km
RCS: Unknown
Launch date: September 4, 2023
Source: United States (US)
Launch site: AIR FORCE EASTERN TEST RANGE (AFETR)
Your satellite tracking list
STARLINK-2295
Track 1 satellite(s)




NASA's NSSDC Master Catalog

Two Line Element Set (TLE):
1 57777U 23134G   25182.56148629  .00000160  00000-0  26894-4 0  9995
2 57777  43.0030 122.1635 0000894 298.0486  62.0266 15.02536447101688
Source of the keplerian elements: AFSPC